This demonstration page uses our WeatherBlox Daily Observations layout. Learn more.

Left ArrowRight Arrow

39.29038, -76.61219

Hourly Observations for October 5, 2016

Temp ( °F °C ) Dew Point ( °F °C ) Humidity (%) Winds ( mph kmh ) Pressure ( in mb ) Visibility ( mi km ) Precip ( " mm )
12:54 am 00:54 undefined 63 17.2 55 12.8 76 76 undefined N/A 30.28 1026 N/A 0.00 0.00
1:54 am 01:54 undefined 62 16.7 55 12.8 78 78 undefined N/A 30.29 1026 N/A 0.00 0.00
2:54 am 02:54 undefined 61 16.1 54 12.2 78 78 undefined N/A 30.28 1025 N/A 0.00 0.00
3:54 am 03:54 undefined 61 16.1 54 12.2 78 78 undefined N/A 30.28 1025 N/A 0.00 0.00
4:54 am 04:54 undefined 61 16.1 54 12.2 78 78 undefined N/A 30.28 1025 N/A 0.00 0.00
5:54 am 05:54 undefined 60 15.6 54 12.2 80 80 undefined N/A 30.29 1026 N/A 0.00 0.00
6:54 am 06:54 undefined 60 15.6 54 12.2 80 80 undefined N/A 30.32 1027 N/A 0.00 0.00
7:54 am 07:54 undefined 60 15.6 53 11.7 78 78 undefined N/A 30.32 1027 N/A 0.00 0.00
8:54 am 08:54 undefined 61 16.1 50 10 67 67 undefined N/A 30.34 1027 N/A 0.00 0.00
9:54 am 09:54 undefined 62 16.7 50 10 65 65 undefined N/A 30.34 1027 N/A 0.00 0.00
10:54 am 10:54 undefined 64 17.8 50 10 60 60 undefined N/A 30.34 1027 N/A 0.00 0.00
11:54 am 11:54 undefined 66 18.9 50 10 56 56 undefined N/A 30.32 1027 N/A 0.00 0.00
12:54 pm 12:54 undefined 68 20 50 10 53 53 undefined N/A 30.31 1027 N/A 0.00 0.00
1:54 pm 13:54 undefined 69 20.6 51 10.6 53 53 undefined N/A 30.29 1026 N/A 0.00 0.00
2:54 pm 14:54 undefined 69 20.6 51 10.6 53 53 undefined N/A 30.28 1025 N/A 0.00 0.00
3:54 pm 15:54 undefined 70 21.1 51 10.6 51 51 undefined N/A 30.28 1025 N/A 0.00 0.00
4:54 pm 16:54 undefined 69 20.6 51 10.6 53 53 undefined N/A 30.24 1024 N/A 0.00 0.00
5:54 pm 17:54 undefined 67 19.4 51 10.6 57 57 undefined N/A 30.24 1024 N/A 0.00 0.00
6:54 pm 18:54 undefined 67 19.4 52 11.1 59 59 undefined N/A 30.25 1024 N/A 0.00 0.00
7:54 pm 19:54 undefined 65 18.3 52 11.1 63 63 undefined N/A 30.26 1025 N/A 0.00 0.00
8:54 pm 20:54 undefined 65 18.3 54 12.2 68 68 undefined N/A 30.27 1025 N/A 0.00 0.00
9:54 pm 21:54 undefined 63 17.2 55 12.8 76 76 undefined N/A 30.27 1025 N/A 0.00 0.00
10:54 pm 22:54 undefined 62 16.7 55 12.8 78 78 undefined N/A 30.28 1025 N/A 0.00 0.00
11:54 pm 23:54 undefined 62 16.7 55 12.8 78 78 undefined N/A 30.29 1026 N/A 0.00 0.00

Powered by AerisWeather